Danbury, CT

3:12 PM EDT on July 28, 2016 (GMT -0400)
Danbury Municipal

Weather History for KDXR - November, 2012

Change the Weather History Date:

Saturday, November 17, 2012

  Actual Average Record
Temperature  
Mean Temperature 37 °F -  
Max Temperature 51 °F 48 °F 67 °F (1953)
Min Temperature 23 °F 28 °F 15 °F (1967)
Degree Days  
Heating Degree Days 28    
Moisture  
Dew Point 26 °F    
Average Humidity 72    
Maximum Humidity 92    
Minimum Humidity 43    
Precipitation  
Precipitation 0.00 in - - ()
Sea Level Pressure  
Sea Level Pressure 30.59 in    
Wind  
Wind Speed 2 mph (NNW)    
Max Wind Speed 9 mph    
Max Gust Speed -    
Visibility 10 miles    
Events      
Averages and records for this station are not official NWS values.
T = Trace of Precipitation, MM = Missing Value Source: NWS Daily Summary

Daily Weather History Graph

Daily Weather History Graph

Search for Another Location

Airport or City:

Trip Planner

Search our weather history database for the weather conditions in past years. The results will help you decide how hot, cold, wet, or windy it might be!

Date:

Astronomy

Nov. 17, 2012 Rise Set
Actual Time 6:45 AM EST 4:32 PM EST
Civil Twilight 6:15 AM EST 5:02 PM EST
Nautical Twilight 5:41 AM EST 5:35 PM EST
Astronomical Twilight 5:08 AM EST 6:08 PM EST
Moon 10:27 AM EST (11/17) 8:39 PM EST (11/17)
Length of Visible Light 10h 46m
Length of Day
9h 47m
Waxing Crescent, 20% of the Moon is Illuminated
Nov 17
Waxing Crescent
Nov 20
First Quarter
Nov 28
Full
Dec 6
Last Quarter
Dec 13
New

Hourly Weather History & Observations

Time (EST) Temp. Windchill Dew Point Humidity Pressure Visibility Wind Dir Wind Speed Gust Speed Precip Events Conditions
12:53 AM 28.9 °F - 23.0 °F 78% 30.46 in 10.0 mi Calm Calm - N/A   Clear
1:53 AM 28.0 °F - 23.0 °F 81% 30.48 in 10.0 mi Calm Calm - N/A   Clear
2:53 AM 28.0 °F - 23.0 °F 81% 30.49 in 10.0 mi Calm Calm - N/A   Clear
3:53 AM 26.1 °F - 23.0 °F 88% 30.51 in 10.0 mi Calm Calm - N/A   Clear
4:53 AM 25.0 °F - 21.9 °F 88% 30.54 in 10.0 mi Calm Calm - N/A   Clear
5:53 AM 25.0 °F - 21.9 °F 88% 30.56 in 10.0 mi Calm Calm - N/A   Clear
6:53 AM 23.0 °F - 21.0 °F 92% 30.59 in 10.0 mi Calm Calm - N/A   Clear
7:53 AM 28.9 °F - 25.0 °F 85% 30.61 in 10.0 mi Calm Calm - N/A   Clear
8:53 AM 36.0 °F - 28.9 °F 76% 30.63 in 10.0 mi Calm Calm - N/A   Clear
9:53 AM 43.0 °F 37.7 °F 30.0 °F 60% 30.63 in 10.0 mi NE 9.2 mph - N/A   Clear
10:53 AM 46.0 °F 41.9 °F 28.9 °F 51% 30.63 in 10.0 mi NNE 8.1 mph - N/A   Clear
11:53 AM 48.0 °F - 30.0 °F 50% 30.61 in 10.0 mi Variable 5.8 mph - N/A   Clear
12:53 PM 51.1 °F - 28.9 °F 43% 30.59 in 10.0 mi North 4.6 mph - N/A   Clear
1:53 PM 51.1 °F - 28.9 °F 43% 30.59 in 10.0 mi Variable 4.6 mph - N/A   Clear
2:53 PM 50.0 °F - 28.0 °F 43% 30.59 in 10.0 mi NNW 6.9 mph - N/A   Clear
3:53 PM 48.0 °F - 28.0 °F 46% 30.60 in 10.0 mi NNW 6.9 mph - N/A   Clear
4:53 PM 45.0 °F 43.5 °F 27.0 °F 49% 30.61 in 10.0 mi North 3.5 mph - N/A   Clear
5:53 PM 37.9 °F 35.5 °F 28.0 °F 68% 30.63 in 10.0 mi SW 3.5 mph - N/A   Clear
6:53 PM 34.0 °F - 28.0 °F 79% 30.63 in 10.0 mi Calm Calm - N/A   Clear
7:53 PM 30.9 °F 27.5 °F 26.1 °F 82% 30.64 in 9.0 mi WSW 3.5 mph - N/A   Clear
8:53 PM 30.0 °F - 26.1 °F 85% 30.66 in 9.0 mi Calm Calm - N/A   Clear
9:53 PM 28.0 °F - 25.0 °F 88% 30.65 in 8.0 mi Calm Calm - N/A   Clear
10:53 PM 28.9 °F - 26.1 °F 89% 30.64 in 8.0 mi Calm Calm - N/A   Clear
11:53 PM 28.0 °F - 25.0 °F 88% 30.66 in 8.0 mi Calm Calm - N/A   Clear